Weather History for KSMX - October, 2013

Change the Weather History Date:

Saturday, October 26, 2013

  Actual Average Record
Temperature  
Mean Temperature 60 °F 60 °F  
Max Temperature 70 °F 72 °F 96 °F (1983)
Min Temperature 50 °F 47 °F 35 °F (1949)
Degree Days  
Heating Degree Days 5 6  
Month to date heating degree days 103 117  
Since 1 July heating degree days 177 334  
Cooling Degree Days 0 0  
Month to date cooling degree days 23 21  
Year to date cooling degree days 208 103  
Growing Degree Days 10 (Base 50)    
Moisture  
Dew Point 51 °F    
Average Humidity 77    
Maximum Humidity 96    
Minimum Humidity 57    
Precipitation  
Precipitation 0.00 in 0.03 in 1.12 in (1927)
Month to date precipitation 0.01 0.43  
Year to date precipitation 2.51 10.33  
Since 1 July precipitation 0.02 0.62  
Sea Level Pressure  
Sea Level Pressure 30.08 in    
Wind  
Wind Speed 3 mph (NW)    
Max Wind Speed 13 mph    
Max Gust Speed 15 mph    
Visibility 3 miles    
Events Fog    
T = Trace of Precipitation, MM = Missing Value Source: NWS Daily Summary

Daily Weather History Graph

Daily Weather History Graph

Search for Another Location

Airport or City:

Trip Planner

Search our weather history database for the weather conditions in past years. The results will help you decide how hot, cold, wet, or windy it might be!

Date:

Astronomy

Oct. 26, 2013 Rise Set
Actual Time 7:17 AM PDT 6:13 PM PDT
Civil Twilight 6:51 AM PDT 6:39 PM PDT
Nautical Twilight 6:21 AM PDT 7:08 PM PDT
Astronomical Twilight 5:52 AM PDT 7:38 PM PDT
Moon No Moon Rise 1:34 PM PDT (10/26)
Length of Visible Light 11h 47m
Length of Day
10h 56m
Waning Gibbous, 52% of the Moon is Illuminated
Oct 26
Waning Gibbous
Oct 26
Last Quarter
Nov 3
New
Nov 9
First Quarter
Nov 17
Full

Hourly Weather History & Observations

Time (PDT) Temp. Dew Point Humidity Pressure Visibility Wind Dir Wind Speed Gust Speed Precip Events Conditions
12:00 AM 53.6 °F 51.8 °F 94% 30.10 in 2.5 mi SE 5.8 mph - N/A   Overcast
12:27 AM 53.6 °F 51.8 °F 94% 30.10 in 1.8 mi Calm Calm - N/A   Overcast
12:35 AM 53.6 °F 51.8 °F 94% 30.11 in 2.5 mi SSE 3.5 mph - N/A   Overcast
12:51 AM 55.0 °F 52.0 °F 89% 30.11 in 3.0 mi ESE 3.5 mph - N/A   Overcast
1:03 AM 55.4 °F 51.8 °F 88% 30.10 in 2.5 mi ESE 3.5 mph - N/A   Overcast
1:31 AM 53.6 °F 51.8 °F 94% 30.10 in 3.0 mi ESE 4.6 mph - N/A   Overcast
1:51 AM 54.0 °F 51.1 °F 90% 30.11 in 3.0 mi ESE 4.6 mph - N/A   Overcast
2:51 AM 54.0 °F 51.1 °F 90% 30.11 in 5.0 mi Calm Calm - N/A   Overcast
3:51 AM 53.1 °F 48.0 °F 83% 30.11 in 8.0 mi ENE 3.5 mph - N/A   Overcast
4:51 AM 54.0 °F 48.9 °F 83% 30.11 in 6.0 mi East 3.5 mph - N/A   Haze
5:36 AM 53.6 °F 50.0 °F 88% 30.10 in 1.8 mi Calm Calm - N/A   Overcast
5:51 AM 53.1 °F 50.0 °F 89% 30.11 in 1.5 mi Calm Calm - N/A   Overcast
6:23 AM 53.6 °F 50.0 °F 88% 30.09 in 1.2 mi Calm Calm - N/A   Overcast
6:34 AM 51.8 °F 50.0 °F 94% 30.09 in 0.5 mi ESE 3.5 mph - N/A Fog Fog
6:47 AM 50.0 °F 48.2 °F 94% 30.09 in 1.5 mi Calm Calm - N/A   Overcast
6:51 AM 51.1 °F 48.0 °F 89% 30.10 in 0.8 mi Calm Calm - N/A   Mist
7:14 AM 51.8 °F 48.2 °F 88% 30.09 in 0.2 mi North - - N/A Fog Fog
7:51 AM 51.1 °F 48.9 °F 92% 30.10 in 0.2 mi Calm Calm - N/A Fog Fog
8:21 AM 51.8 °F 48.2 °F 88% 30.10 in 0.2 mi SW 3.5 mph - N/A Fog Fog
8:51 AM 52.0 °F 50.0 °F 93% 30.11 in 0.2 mi Calm Calm - N/A Fog Fog
9:22 AM 53.6 °F 50.0 °F 88% 30.11 in 5.0 mi Calm Calm - N/A   Overcast
9:51 AM 55.0 °F 50.0 °F 83% 30.12 in 4.0 mi WNW 6.9 mph - N/A   Haze
10:43 AM 57.2 °F 50.0 °F 77% 30.11 in 5.0 mi North 5.8 mph - N/A   Haze
10:51 AM 59.0 °F 50.0 °F 72% 30.12 in 5.0 mi Variable 4.6 mph - N/A   Haze
11:51 AM 64.9 °F 51.1 °F 61% 30.12 in 7.0 mi NW 6.9 mph - N/A   Clear
12:51 PM 66.0 °F 51.1 °F 59% 30.09 in 7.0 mi WNW 8.1 mph - N/A   Clear
1:51 PM 69.1 °F 52.0 °F 54% 30.06 in 9.0 mi WNW 5.8 mph - N/A   Clear
2:51 PM 69.1 °F 54.0 °F 58% 30.05 in 8.0 mi NNW 9.2 mph - N/A   Clear
3:51 PM 64.0 °F 53.1 °F 67% 30.05 in 6.0 mi NW 8.1 mph - N/A   Haze
4:51 PM 63.0 °F 53.1 °F 70% 30.04 in 7.0 mi NW 6.9 mph - N/A   Clear
5:51 PM 57.9 °F 52.0 °F 81% 30.04 in 5.0 mi NW 4.6 mph - N/A   Haze
6:09 PM 55.4 °F 51.8 °F 88% 30.03 in 3.0 mi WNW 5.8 mph - N/A   Scattered Clouds
6:14 PM 55.4 °F 51.8 °F 88% 30.03 in 3.0 mi WNW 5.8 mph - N/A   Mostly Cloudy
6:51 PM 55.0 °F 52.0 °F 89% 30.04 in 2.0 mi Calm Calm - N/A   Overcast
7:26 PM 55.4 °F 51.8 °F 88% 30.04 in 0.2 mi WSW 3.5 mph - N/A Fog Fog
7:51 PM 55.0 °F 53.1 °F 93% 30.06 in 0.2 mi Calm Calm - N/A Fog Fog
8:00 PM 55.4 °F 51.8 °F 88% 30.04 in 0.5 mi Calm Calm - N/A Fog Fog
8:06 PM 55.4 °F 51.8 °F 88% 30.04 in 0.2 mi Calm Calm - N/A Fog Fog
8:51 PM 54.0 °F 52.0 °F 93% 30.06 in 0.2 mi Calm Calm - N/A Fog Fog
9:51 PM 55.0 °F 53.1 °F 93% 30.07 in 0.2 mi Calm Calm - N/A Fog Fog
10:51 PM 54.0 °F 52.0 °F 93% 30.07 in 0.2 mi NNW 3.5 mph - N/A Fog Fog
11:35 PM 55.4 °F 53.6 °F 94% 30.06 in 0.5 mi Calm Calm - N/A Fog Fog
11:46 PM 55.4 °F 53.6 °F 94% 30.06 in 0.2 mi Calm Calm - N/A Fog Fog
11:51 PM 55.0 °F 53.1 °F 93% 30.06 in 0.2 mi Calm Calm - N/A Fog Fog
11:58 PM 55.4 °F 53.6 °F 94% 30.05 in 0.5 mi Calm Calm - N/A Fog Fog